Middletown, PA

8:44 PM EST on February 23, 2017 (GMT -0500)
Harrisburg International

Weather History for KMDT - February, 2014

Change the Weather History Date:

Tuesday, February 11, 2014

  Actual Average Record
Temperature  
Mean Temperature 17 °F 32 °F  
Max Temperature 26 °F 40 °F 63 °F (2009)
Min Temperature 8 °F 24 °F -10 °F (1899)
Degree Days  
Heating Degree Days 48 33  
Month to date heating degree days 431 375  
Since 1 July heating degree days 3719 3464  
Cooling Degree Days 0 0  
Month to date cooling degree days 0 0  
Year to date cooling degree days 0 0  
Moisture  
Dew Point 4 °F    
Average Humidity 55    
Maximum Humidity 73    
Minimum Humidity 37    
Precipitation  
Precipitation 0.00 in 0.08 in 2.00 in (1983)
Month to date precipitation 2.38 0.92  
Year to date precipitation 4.82 3.80  
Snow  
Snow 0.00 in 0.40 in 24.00 in (1983)
Month to date snowfall 8.2 4.3  
Since 1 July snowfall 29.2 18.8  
Snow Depth 4.00 in    
Sea Level Pressure  
Sea Level Pressure 30.42 in    
Wind  
Wind Speed 6 mph (NW)    
Max Wind Speed 15 mph    
Max Gust Speed 19 mph    
Visibility 10 miles    
Events      
T = Trace of Precipitation, MM = Missing Value Source: NWS Daily Summary

Daily Weather History Graph

Daily Weather History Graph

Search for Another Location

Airport or City:

Trip Planner

Search our weather history database for the weather conditions in past years. The results will help you decide how hot, cold, wet, or windy it might be!

Date:

Astronomy

Feb. 11, 2014 Rise Set
Actual Time 7:05 AM EST 5:37 PM EST
Civil Twilight 6:37 AM EST 6:06 PM EST
Nautical Twilight 6:05 AM EST 6:38 PM EST
Astronomical Twilight 5:33 AM EST 7:09 PM EST
Moon 2:56 PM EST (2/11) 4:40 AM EST (2/11)
Length of Visible Light 11h 28m
Length of Day
10h 32m
Waxing Gibbous, 90% of the Moon is Illuminated
Feb 11
Waxing Gibbous
Feb 14
Full
Feb 22
Last Quarter
Mar 1
New
Mar 8
First Quarter

Hourly Weather History & Observations

Time (EST) Temp. Windchill Dew Point Humidity Pressure Visibility Wind Dir Wind Speed Gust Speed Precip Events Conditions
12:56 AM 12.9 °F 1.6 °F 3.0 °F 65% 30.34 in 10.0 mi WNW 8.1 mph - N/A   Clear
1:56 AM 16.0 °F 8.8 °F 6.1 °F 65% 30.34 in 10.0 mi NW 4.6 mph - N/A   Mostly Cloudy
2:56 AM 19.0 °F 12.3 °F 7.0 °F 59% 30.35 in 10.0 mi NNW 4.6 mph - N/A   Mostly Cloudy
3:56 AM 19.9 °F 11.1 °F 5.0 °F 52% 30.36 in 10.0 mi NNW 6.9 mph - N/A   Mostly Cloudy
4:56 AM 19.0 °F 11.1 °F 3.9 °F 52% 30.37 in 10.0 mi NNW 5.8 mph - N/A   Scattered Clouds
5:56 AM 12.0 °F - 3.0 °F 67% 30.38 in 10.0 mi Calm Calm - N/A   Partly Cloudy
6:56 AM 9.0 °F - 1.9 °F 73% 30.41 in 9.0 mi Calm Calm - N/A   Clear
7:56 AM 10.0 °F - 3.9 °F 76% 30.44 in 8.0 mi Calm Calm - N/A   Clear
8:56 AM 14.0 °F 5.1 °F 3.9 °F 64% 30.45 in 10.0 mi NW 5.8 mph - N/A   Clear
9:56 AM 19.0 °F 9.0 °F 5.0 °F 54% 30.45 in 10.0 mi WNW 8.1 mph - N/A   Partly Cloudy
10:56 AM 21.0 °F 11.4 °F 3.9 °F 48% 30.45 in 10.0 mi WNW 8.1 mph - N/A   Partly Cloudy
11:56 AM 23.0 °F 12.4 °F 3.0 °F 42% 30.43 in 10.0 mi NNW 10.4 mph - N/A   Partly Cloudy
12:56 PM 24.1 °F 12.5 °F 6.1 °F 46% 30.40 in 10.0 mi WNW 12.7 mph - N/A   Partly Cloudy
1:56 PM 25.0 °F 14.8 °F 5.0 °F 43% 30.38 in 10.0 mi NNW 10.4 mph - N/A   Clear
2:56 PM 25.0 °F 14.8 °F 5.0 °F 43% 30.38 in 10.0 mi NW 10.4 mph - N/A   Clear
3:56 PM 26.1 °F 16.2 °F 3.9 °F 39% 30.39 in 10.0 mi North 10.4 mph - N/A   Partly Cloudy
4:56 PM 26.1 °F 15.0 °F 3.9 °F 39% 30.40 in 10.0 mi NNW 12.7 mph - N/A   Partly Cloudy
5:56 PM 25.0 °F 18.1 °F 3.9 °F 41% 30.43 in 10.0 mi NNW 5.8 mph - N/A   Clear
6:56 PM 17.1 °F - 6.1 °F 62% 30.45 in 10.0 mi Calm Calm - N/A   Clear
7:56 PM 15.1 °F - 5.0 °F 64% 30.47 in 10.0 mi Calm Calm - N/A   Clear
8:56 PM 12.9 °F - 3.9 °F 67% 30.48 in 10.0 mi Calm Calm - N/A   Clear
9:56 PM 14.0 °F 8.2 °F 6.1 °F 71% 30.50 in 9.0 mi NNE 3.5 mph - N/A   Clear
10:56 PM 10.9 °F 2.9 °F 3.9 °F 73% 30.51 in 8.0 mi West 4.6 mph - N/A   Clear
11:56 PM 12.0 °F - 1.9 °F 64% 30.51 in 9.0 mi Calm Calm - N/A   Clear